Time,TemperatureF,DewpointF,PressureIn,WindDirection,WindDirectionDegrees,WindSpeedMPH,WindSpeedGustMPH,Humidity,HourlyPrecipIn,Conditions,Clouds,dailyrainin,SoftwareType,DateUTC
2013-03-16 00:00:00,56.8,41.4,29.93,SW,218,0.0,6.0,56,0.00,,,0.00,meteohub,2013-03-16 04:00:00,
2013-03-16 00:05:00,56.7,41.2,29.93,WSW,250,0.0,5.0,56,0.00,,,0.00,meteohub,2013-03-16 04:05:00,
2013-03-16 00:10:00,56.7,41.2,29.92,SW,235,0.0,4.0,56,0.00,,,0.00,meteohub,2013-03-16 04:10:00,
2013-03-16 00:15:00,56.7,41.2,29.93,West,270,1.0,5.0,56,0.00,,,0.00,meteohub,2013-03-16 04:15:00,
2013-03-16 00:21:00,56.7,41.2,29.92,SW,226,1.0,5.0,56,0.00,,,0.00,meteohub,2013-03-16 04:21:00,
2013-03-16 00:26:00,56.5,41.0,29.92,SSW,203,1.0,5.0,56,0.00,,,0.00,meteohub,2013-03-16 04:26:00,
2013-03-16 00:31:00,56.1,41.2,29.92,South,183,1.0,5.0,57,0.00,,,0.00,meteohub,2013-03-16 04:31:00,
2013-03-16 00:36:00,55.9,41.0,29.92,SSW,197,3.0,5.0,57,0.00,,,0.00,meteohub,2013-03-16 04:36:00,
2013-03-16 00:41:00,55.8,40.8,29.91,SSE,159,2.0,4.0,57,0.00,,,0.00,meteohub,2013-03-16 04:41:00,
2013-03-16 00:46:00,55.6,41.0,29.91,SSE,151,0.0,4.0,58,0.00,,,0.00,meteohub,2013-03-16 04:46:00,
2013-03-16 00:51:00,55.0,41.0,29.91,SSW,200,0.0,4.0,59,0.00,,,0.00,meteohub,2013-03-16 04:51:00,
2013-03-16 00:56:00,54.5,40.8,29.91,WSW,256,3.0,3.0,60,0.00,,,0.00,meteohub,2013-03-16 04:56:00,
2013-03-16 01:01:00,54.0,40.8,29.90,SW,214,0.0,4.0,61,0.00,,,0.00,meteohub,2013-03-16 05:01:00,
2013-03-16 01:07:00,53.8,40.6,29.90,WSW,256,0.0,4.0,61,0.00,,,0.00,meteohub,2013-03-16 05:07:00,
2013-03-16 01:12:00,54.0,40.8,29.89,SSW,195,1.0,4.0,61,0.00,,,0.00,meteohub,2013-03-16 05:12:00,
2013-03-16 01:17:00,54.1,41.0,29.89,SW,232,3.0,8.0,61,0.00,,,0.00,meteohub,2013-03-16 05:17:00,
2013-03-16 01:22:00,54.7,41.0,29.89,SW,231,6.0,8.0,60,0.00,,,0.00,meteohub,2013-03-16 05:22:00,
2013-03-16 01:27:00,55.0,41.0,29.89,SW,217,1.0,8.0,59,0.00,,,0.00,meteohub,2013-03-16 05:27:00,
2013-03-16 01:32:00,54.9,40.8,29.89,SW,217,0.0,7.0,59,0.00,,,0.00,meteohub,2013-03-16 05:32:00,
2013-03-16 01:37:00,54.7,41.0,29.89,West,263,0.0,7.0,60,0.00,,,0.00,meteohub,2013-03-16 05:37:00,
2013-03-16 01:42:00,54.3,40.8,29.89,SSE,148,0.0,6.0,60,0.00,,,0.00,meteohub,2013-03-16 05:42:00,
2013-03-16 01:47:00,54.0,40.8,29.89,SSW,210,2.0,6.0,61,0.00,,,0.00,meteohub,2013-03-16 05:47:00,
2013-03-16 01:52:00,54.0,40.8,29.89,SSW,211,3.0,6.0,61,0.00,,,0.00,meteohub,2013-03-16 05:52:00,
2013-03-16 01:57:00,54.0,40.8,29.89,NW,325,0.0,5.0,61,0.00,,,0.00,meteohub,2013-03-16 05:57:00,
2013-03-16 02:02:00,53.4,40.6,29.89,NE,49,0.0,5.0,62,0.00,,,0.00,meteohub,2013-03-16 06:02:00,
2013-03-16 02:07:00,53.2,40.6,29.89,ENE,75,0.0,5.0,62,0.00,,,0.00,meteohub,2013-03-16 06:07:00,
2013-03-16 02:12:00,53.6,40.8,29.89,SSE,160,3.0,3.0,62,0.00,,,0.00,meteohub,2013-03-16 06:12:00,
2013-03-16 02:17:00,53.8,41.0,29.89,SSW,193,0.0,7.0,62,0.00,,,0.00,meteohub,2013-03-16 06:17:00,
2013-03-16 02:22:00,53.8,41.0,29.89,WNW,285,0.0,7.0,62,0.00,,,0.00,meteohub,2013-03-16 06:22:00,
2013-03-16 02:27:00,53.6,40.8,29.89,SSW,197,1.0,7.0,62,0.00,,,0.00,meteohub,2013-03-16 06:27:00,
2013-03-16 02:32:00,53.4,40.6,29.89,East,101,1.0,5.0,62,0.00,,,0.00,meteohub,2013-03-16 06:32:00,
2013-03-16 02:37:00,53.1,40.8,29.89,SE,127,1.0,4.0,63,0.00,,,0.00,meteohub,2013-03-16 06:37:00,
2013-03-16 02:42:00,52.3,40.5,29.89,South,191,2.0,3.0,64,0.00,,,0.00,meteohub,2013-03-16 06:42:00,
2013-03-16 02:47:00,52.3,40.5,29.89,SE,134,1.0,6.0,64,0.00,,,0.00,meteohub,2013-03-16 06:47:00,
2013-03-16 02:52:00,52.0,40.6,29.89,East,89,0.0,6.0,65,0.00,,,0.00,meteohub,2013-03-16 06:52:00,
2013-03-16 02:58:00,51.6,40.6,29.89,East,79,0.0,6.0,66,0.00,,,0.00,meteohub,2013-03-16 06:58:00,
2013-03-16 03:03:00,51.6,40.6,29.89,WSW,241,1.0,5.0,66,0.00,,,0.00,meteohub,2013-03-16 07:03:00,
2013-03-16 03:08:00,51.6,40.6,29.90,East,98,0.0,3.0,66,0.00,,,0.00,meteohub,2013-03-16 07:08:00,
2013-03-16 03:13:00,51.6,40.6,29.90,SSW,200,0.0,3.0,66,0.00,,,0.00,meteohub,2013-03-16 07:13:00,
2013-03-16 03:18:00,51.8,40.8,29.89,SSW,212,0.0,3.0,66,0.00,,,0.00,meteohub,2013-03-16 07:18:00,
2013-03-16 03:23:00,52.3,41.0,29.90,South,184,2.0,5.0,65,0.00,,,0.00,meteohub,2013-03-16 07:23:00,
2013-03-16 03:28:00,52.7,40.8,29.90,SW,225,2.0,5.0,64,0.00,,,0.00,meteohub,2013-03-16 07:28:00,
2013-03-16 03:33:00,52.9,41.0,29.90,WNW,302,0.0,5.0,64,0.00,,,0.00,meteohub,2013-03-16 07:33:00,
2013-03-16 03:38:00,53.1,41.2,29.89,WSW,253,0.0,6.0,64,0.00,,,0.00,meteohub,2013-03-16 07:38:00,
2013-03-16 03:43:00,53.2,41.4,29.89,SW,214,1.0,6.0,64,0.00,,,0.00,meteohub,2013-03-16 07:43:00,
2013-03-16 03:48:00,53.8,41.5,29.89,SW,221,7.0,13.0,63,0.00,,,0.00,meteohub,2013-03-16 07:48:00,
2013-03-16 03:53:00,54.1,41.4,29.89,SW,222,8.0,13.0,62,0.00,,,0.00,meteohub,2013-03-16 07:53:00,
2013-03-16 03:58:00,54.3,41.2,29.89,SW,231,2.0,13.0,61,0.00,,,0.00,meteohub,2013-03-16 07:58:00,
2013-03-16 04:03:00,54.7,41.5,29.88,SW,233,2.0,11.0,61,0.00,,,0.00,meteohub,2013-03-16 08:03:00,
2013-03-16 04:08:00,55.0,41.4,29.88,WSW,252,2.0,9.0,60,0.00,,,0.00,meteohub,2013-03-16 08:08:00,
2013-03-16 04:13:00,55.2,41.5,29.88,SW,221,1.0,12.0,60,0.00,,,0.00,meteohub,2013-03-16 08:13:00,
2013-03-16 04:18:00,54.3,40.8,29.88,West,260,4.0,12.0,60,0.00,,,0.00,meteohub,2013-03-16 08:18:00,
2013-03-16 04:24:00,54.3,40.8,29.88,North,-999,-999.0,12.0,60,0.00,,,0.00,meteohub,2013-03-16 08:24:00,
2013-03-16 04:29:00,54.3,40.8,29.88,North,-999,-999.0,7.0,60,0.00,,,0.00,meteohub,2013-03-16 08:29:00,
2013-03-16 08:11:00,55.8,39.9,29.88,North,-999,-999.0,-999.0,55,-99.99,,,0.00,meteohub,2013-03-16 12:11:00,
2013-03-16 08:16:00,56.1,40.1,29.88,North,-999,-999.0,-999.0,55,0.00,,,0.00,meteohub,2013-03-16 12:16:00,
2013-03-16 08:21:00,56.7,40.3,29.88,WSW,253,5.0,5.0,54,0.00,,,0.00,meteohub,2013-03-16 12:21:00,
2013-03-16 08:27:00,57.0,40.1,29.88,NW,309,0.0,9.0,53,0.00,,,0.00,meteohub,2013-03-16 12:27:00,
2013-03-16 08:32:00,57.4,40.8,29.88,West,281,6.0,9.0,54,0.00,,,0.00,meteohub,2013-03-16 12:32:00,
2013-03-16 08:37:00,57.7,40.3,29.88,West,260,0.0,9.0,52,0.00,,,0.00,meteohub,2013-03-16 12:37:00,
2013-03-16 08:42:00,57.9,40.5,29.88,NNW,337,0.0,7.0,52,0.00,,,0.00,meteohub,2013-03-16 12:42:00,
2013-03-16 08:47:00,57.7,40.3,29.88,SW,234,6.0,7.0,52,0.00,,,0.00,meteohub,2013-03-16 12:47:00,
2013-03-16 08:52:00,57.9,40.5,29.88,ESE,121,1.0,12.0,52,0.00,,,0.00,meteohub,2013-03-16 12:52:00,
2013-03-16 08:57:00,58.3,40.8,29.88,WNW,295,2.0,12.0,52,0.00,,,0.00,meteohub,2013-03-16 12:57:00,
2013-03-16 09:02:00,58.5,40.8,29.89,West,273,1.0,12.0,52,0.00,,,0.00,meteohub,2013-03-16 13:02:00,
2013-03-16 09:07:00,58.6,40.6,29.88,South,187,3.0,11.0,51,0.00,,,0.00,meteohub,2013-03-16 13:07:00,
2013-03-16 09:12:00,59.0,40.8,29.89,West,262,7.0,14.0,51,0.00,,,0.00,meteohub,2013-03-16 13:12:00,
2013-03-16 09:17:00,59.2,41.0,29.89,WSW,256,6.0,16.0,51,0.00,,,0.00,meteohub,2013-03-16 13:17:00,
2013-03-16 09:22:00,59.4,41.2,29.89,West,281,3.0,16.0,51,0.00,,,0.00,meteohub,2013-03-16 13:22:00,
2013-03-16 09:27:00,59.4,41.2,29.89,North,8,4.0,16.0,51,0.00,,,0.00,meteohub,2013-03-16 13:27:00,
2013-03-16 09:32:00,59.7,41.5,29.89,West,277,3.0,13.0,51,0.00,,,0.00,meteohub,2013-03-16 13:32:00,
2013-03-16 09:37:00,59.7,41.5,29.89,SSW,203,1.0,13.0,51,0.00,,,0.00,meteohub,2013-03-16 13:37:00,
2013-03-16 09:42:00,59.7,41.5,29.89,NW,317,2.0,14.0,51,0.00,,,0.00,meteohub,2013-03-16 13:42:00,
2013-03-16 09:47:00,60.1,41.9,29.89,NNW,330,1.0,14.0,51,0.00,,,0.00,meteohub,2013-03-16 13:47:00,
2013-03-16 09:52:00,60.3,42.1,29.89,SE,131,4.0,14.0,51,0.00,,,0.00,meteohub,2013-03-16 13:52:00,
2013-03-16 09:57:00,61.0,42.3,29.89,ESE,107,3.0,13.0,50,0.00,,,0.00,meteohub,2013-03-16 13:57:00,
2013-03-16 10:02:00,61.2,42.4,29.89,SE,124,1.0,13.0,50,0.00,,,0.00,meteohub,2013-03-16 14:02:00,
2013-03-16 10:07:00,61.2,41.9,29.89,SSE,150,1.0,9.0,49,0.00,,,0.00,meteohub,2013-03-16 14:07:00,
2013-03-16 10:12:00,61.2,42.4,29.88,SW,225,2.0,11.0,50,0.00,,,0.00,meteohub,2013-03-16 14:12:00,
2013-03-16 10:17:00,61.3,42.6,29.89,NW,308,2.0,14.0,50,0.00,,,0.00,meteohub,2013-03-16 14:17:00,
2013-03-16 10:22:00,61.2,42.4,29.89,SSE,152,1.0,14.0,50,0.00,,,0.00,meteohub,2013-03-16 14:22:00,
2013-03-16 10:27:00,61.0,42.3,29.88,NW,304,6.0,14.0,50,0.00,,,0.00,meteohub,2013-03-16 14:27:00,
2013-03-16 10:32:00,60.6,42.4,29.88,WNW,295,4.0,10.0,51,0.00,,,0.00,meteohub,2013-03-16 14:32:00,
2013-03-16 10:37:00,60.3,42.6,29.88,NW,309,4.0,10.0,52,0.00,,,0.00,meteohub,2013-03-16 14:37:00,
2013-03-16 10:42:00,60.3,42.6,29.88,WNW,284,4.0,10.0,52,0.00,,,0.00,meteohub,2013-03-16 14:42:00,
2013-03-16 10:47:00,60.6,43.0,29.88,NW,324,1.0,12.0,52,0.00,,,0.00,meteohub,2013-03-16 14:47:00,
2013-03-16 10:52:00,61.3,43.0,29.87,West,274,12.0,12.0,51,0.00,,,0.00,meteohub,2013-03-16 14:52:00,
2013-03-16 10:57:00,61.5,43.2,29.87,NW,314,4.0,14.0,51,0.00,,,0.00,meteohub,2013-03-16 14:57:00,
2013-03-16 11:02:00,62.2,43.3,29.87,West,281,5.0,14.0,50,0.00,,,0.00,meteohub,2013-03-16 15:02:00,
2013-03-16 11:07:00,63.3,43.9,29.87,North,349,2.0,14.0,49,0.00,,,0.00,meteohub,2013-03-16 15:07:00,
2013-03-16 11:13:00,64.2,44.1,29.87,West,277,5.0,13.0,48,0.00,,,0.00,meteohub,2013-03-16 15:13:00,
2013-03-16 11:18:00,64.6,44.4,29.86,SSW,210,3.0,11.0,48,0.00,,,0.00,meteohub,2013-03-16 15:18:00,
2013-03-16 11:23:00,64.9,44.2,29.86,WSW,243,10.0,11.0,47,0.00,,,0.00,meteohub,2013-03-16 15:23:00,
2013-03-16 11:28:00,64.8,44.1,29.86,SW,231,12.0,20.0,47,0.00,,,0.00,meteohub,2013-03-16 15:28:00,
2013-03-16 11:33:00,64.2,44.1,29.86,SSW,200,4.0,20.0,48,0.00,,,0.00,meteohub,2013-03-16 15:33:00,
2013-03-16 11:38:00,64.8,44.1,29.86,WSW,245,11.0,25.0,47,0.00,,,0.00,meteohub,2013-03-16 15:38:00,
2013-03-16 11:43:00,64.4,44.2,29.86,North,352,6.0,25.0,48,0.00,,,0.00,meteohub,2013-03-16 15:43:00,
2013-03-16 11:48:00,64.4,43.7,29.86,West,281,14.0,19.0,47,0.00,,,0.00,meteohub,2013-03-16 15:48:00,
2013-03-16 11:53:00,64.9,44.8,29.85,West,263,2.0,19.0,48,0.00,,,0.00,meteohub,2013-03-16 15:53:00,
2013-03-16 11:58:00,65.3,44.6,29.86,West,269,14.0,19.0,47,0.00,,,0.00,meteohub,2013-03-16 15:58:00,
2013-03-16 12:03:00,65.5,44.8,29.85,WSW,256,7.0,17.0,47,0.00,,,0.00,meteohub,2013-03-16 16:03:00,
2013-03-16 12:08:00,66.0,45.1,29.85,SSW,211,4.0,19.0,47,0.00,,,0.00,meteohub,2013-03-16 16:08:00,
2013-03-16 12:13:00,66.4,44.4,29.85,NW,314,3.0,19.0,45,0.00,,,0.00,meteohub,2013-03-16 16:13:00,
2013-03-16 12:18:00,66.2,44.8,29.85,NE,42,5.0,19.0,46,0.00,,,0.00,meteohub,2013-03-16 16:18:00,
2013-03-16 12:23:00,66.2,44.2,29.84,West,281,9.0,22.0,45,0.00,,,0.00,meteohub,2013-03-16 16:23:00,
2013-03-16 12:28:00,66.4,44.4,29.84,SW,226,7.0,22.0,45,0.00,,,0.00,meteohub,2013-03-16 16:28:00,
2013-03-16 12:33:00,67.5,44.8,29.84,ENE,68,3.0,22.0,44,0.00,,,0.00,meteohub,2013-03-16 16:33:00,
2013-03-16 12:38:00,68.4,45.0,29.84,SW,214,6.0,20.0,43,0.00,,,0.00,meteohub,2013-03-16 16:38:00,
2013-03-16 12:43:00,68.4,45.0,29.83,SW,225,9.0,17.0,43,0.00,,,0.00,meteohub,2013-03-16 16:43:00,
2013-03-16 12:48:00,67.8,43.9,29.83,NNW,327,4.0,16.0,42,0.00,,,0.00,meteohub,2013-03-16 16:48:00,
2013-03-16 12:53:00,68.4,44.4,29.83,West,269,5.0,18.0,42,0.00,,,0.00,meteohub,2013-03-16 16:53:00,
2013-03-16 12:58:00,68.5,44.6,29.83,SSW,208,1.0,18.0,42,0.00,,,0.00,meteohub,2013-03-16 16:58:00,
2013-03-16 13:03:00,69.1,44.4,29.83,West,280,4.0,18.0,41,0.00,,,0.00,meteohub,2013-03-16 17:03:00,
2013-03-16 13:08:00,69.3,44.6,29.83,West,262,10.0,14.0,41,0.00,,,0.00,meteohub,2013-03-16 17:08:00,
2013-03-16 13:13:00,69.3,43.9,29.82,WSW,256,7.0,14.0,40,0.00,,,0.00,meteohub,2013-03-16 17:13:00,
2013-03-16 13:18:00,69.6,43.5,29.82,WSW,249,7.0,14.0,39,0.00,,,0.00,meteohub,2013-03-16 17:18:00,
2013-03-16 13:23:00,69.6,43.5,29.81,SW,229,5.0,14.0,39,0.00,,,0.00,meteohub,2013-03-16 17:23:00,
2013-03-16 13:28:00,69.8,44.4,29.81,ENE,63,2.0,19.0,40,0.00,,,0.00,meteohub,2013-03-16 17:28:00,
2013-03-16 13:33:00,70.9,44.1,29.81,West,280,2.0,19.0,38,0.00,,,0.00,meteohub,2013-03-16 17:33:00,
2013-03-16 13:38:00,70.5,43.7,29.81,NW,319,2.0,19.0,38,0.00,,,0.00,meteohub,2013-03-16 17:38:00,
2013-03-16 13:43:00,71.1,43.5,29.81,WNW,284,10.0,12.0,37,0.00,,,0.00,meteohub,2013-03-16 17:43:00,
2013-03-16 13:48:00,70.9,43.3,29.80,WNW,284,7.0,13.0,37,0.00,,,0.00,meteohub,2013-03-16 17:48:00,
2013-03-16 13:54:00,70.7,43.2,29.80,West,274,9.0,15.0,37,0.00,,,0.00,meteohub,2013-03-16 17:54:00,
2013-03-16 13:59:00,70.9,42.6,29.80,West,259,12.0,16.0,36,0.00,,,0.00,meteohub,2013-03-16 17:59:00,
2013-03-16 14:04:00,71.4,42.3,29.80,West,262,14.0,17.0,35,0.00,,,0.00,meteohub,2013-03-16 18:04:00,
2013-03-16 14:09:00,71.2,41.4,29.80,West,264,12.0,22.0,34,0.00,,,0.00,meteohub,2013-03-16 18:09:00,
2013-03-16 14:14:00,71.4,40.8,29.79,WNW,293,9.0,22.0,33,0.00,,,0.00,meteohub,2013-03-16 18:14:00,
2013-03-16 14:19:00,71.2,42.3,29.79,South,180,2.0,22.0,35,0.00,,,0.00,meteohub,2013-03-16 18:19:00,
2013-03-16 14:24:00,72.5,41.0,29.79,West,267,8.0,19.0,32,0.00,,,0.00,meteohub,2013-03-16 18:24:00,
2013-03-16 14:29:00,71.4,40.8,29.79,WSW,239,12.0,17.0,33,0.00,,,0.00,meteohub,2013-03-16 18:29:00,
2013-03-16 14:34:00,71.4,40.8,29.79,North,6,3.0,21.0,33,0.00,,,0.00,meteohub,2013-03-16 18:34:00,
2013-03-16 14:39:00,72.1,40.6,29.78,SW,231,8.0,21.0,32,0.00,,,0.00,meteohub,2013-03-16 18:39:00,
2013-03-16 14:44:00,71.8,40.3,29.79,WSW,257,10.0,21.0,32,0.00,,,0.00,meteohub,2013-03-16 18:44:00,
2013-03-16 14:49:00,72.0,39.7,29.78,NE,39,6.0,22.0,31,0.00,,,0.00,meteohub,2013-03-16 18:49:00,
2013-03-16 14:54:00,72.0,40.5,29.78,South,187,8.0,22.0,32,0.00,,,0.00,meteohub,2013-03-16 18:54:00,
2013-03-16 14:59:00,72.7,41.2,29.78,WSW,253,4.0,23.0,32,0.00,,,0.00,meteohub,2013-03-16 18:59:00,
2013-03-16 15:04:00,73.4,41.0,29.78,SW,225,11.0,23.0,31,0.00,,,0.00,meteohub,2013-03-16 19:04:00,
2013-03-16 15:09:00,73.2,41.5,29.78,East,86,1.0,23.0,32,0.00,,,0.00,meteohub,2013-03-16 19:09:00,
2013-03-16 15:14:00,73.9,40.5,29.77,WSW,249,12.0,24.0,30,0.00,,,0.00,meteohub,2013-03-16 19:14:00,
2013-03-16 15:19:00,73.6,41.0,29.77,SE,126,16.0,24.0,31,0.00,,,0.00,meteohub,2013-03-16 19:19:00,
2013-03-16 15:24:00,73.6,41.0,29.77,WSW,258,6.0,24.0,31,0.00,,,0.00,meteohub,2013-03-16 19:24:00,
2013-03-16 15:29:00,73.2,40.8,29.77,WSW,240,16.0,20.0,31,0.00,,,0.00,meteohub,2013-03-16 19:29:00,
2013-03-16 15:34:00,73.9,42.3,29.76,West,264,12.0,20.0,32,0.00,,,0.00,meteohub,2013-03-16 19:34:00,
2013-03-16 15:39:00,74.1,41.5,29.76,SW,217,10.0,16.0,31,0.00,,,0.00,meteohub,2013-03-16 19:39:00,
2013-03-16 15:44:00,74.5,41.9,29.76,North,8,3.0,16.0,31,0.00,,,0.00,meteohub,2013-03-16 19:44:00,
2013-03-16 15:49:00,74.8,42.3,29.76,NNW,338,3.0,14.0,31,0.00,,,0.00,meteohub,2013-03-16 19:49:00,
2013-03-16 15:54:00,75.4,41.7,29.75,SW,215,10.0,22.0,30,0.00,,,0.00,meteohub,2013-03-16 19:54:00,
2013-03-16 15:59:00,75.6,41.0,29.76,NW,309,6.0,22.0,29,0.00,,,0.00,meteohub,2013-03-16 19:59:00,
2013-03-16 16:05:00,74.7,41.2,29.76,NNE,24,6.0,22.0,30,0.00,,,0.00,meteohub,2013-03-16 20:05:00,
2013-03-16 16:10:00,73.8,41.2,29.76,SSE,162,3.0,22.0,31,0.00,,,0.00,meteohub,2013-03-16 20:10:00,
2013-03-16 16:15:00,73.9,41.4,29.75,West,269,6.0,22.0,31,0.00,,,0.00,meteohub,2013-03-16 20:15:00,
2013-03-16 16:20:00,74.7,42.1,29.75,SW,228,7.0,22.0,31,0.00,,,0.00,meteohub,2013-03-16 20:20:00,
2013-03-16 16:25:00,74.8,41.4,29.75,SW,233,7.0,18.0,30,0.00,,,0.00,meteohub,2013-03-16 20:25:00,
2013-03-16 16:30:00,74.7,41.2,29.75,West,264,11.0,13.0,30,0.00,,,0.00,meteohub,2013-03-16 20:30:00,
2013-03-16 16:35:00,74.1,41.5,29.75,ESE,122,4.0,17.0,31,0.00,,,0.00,meteohub,2013-03-16 20:35:00,
2013-03-16 16:40:00,73.6,41.9,29.75,West,260,5.0,17.0,32,0.00,,,0.00,meteohub,2013-03-16 20:40:00,
2013-03-16 16:45:00,73.8,41.2,29.75,WSW,253,4.0,14.0,31,0.00,,,0.00,meteohub,2013-03-16 20:45:00,
2013-03-16 16:50:00,73.6,41.9,29.75,NW,304,2.0,13.0,32,0.00,,,0.00,meteohub,2013-03-16 20:50:00,
2013-03-16 16:55:00,73.4,42.6,29.75,NW,313,3.0,10.0,33,0.00,,,0.00,meteohub,2013-03-16 20:55:00,
2013-03-16 17:00:00,73.2,42.4,29.76,West,270,5.0,9.0,33,0.00,,,0.00,meteohub,2013-03-16 21:00:00,
2013-03-16 17:05:00,73.0,43.0,29.75,WNW,284,7.0,11.0,34,0.00,,,0.00,meteohub,2013-03-16 21:05:00,
2013-03-16 17:10:00,72.9,42.8,29.75,West,274,6.0,11.0,34,0.00,,,0.00,meteohub,2013-03-16 21:10:00,
2013-03-16 17:15:00,73.6,42.6,29.76,WSW,238,15.0,15.0,33,0.00,,,0.00,meteohub,2013-03-16 21:15:00,
2013-03-16 17:20:00,72.9,42.1,29.76,NW,323,0.0,15.0,33,0.00,,,0.00,meteohub,2013-03-16 21:20:00,
2013-03-16 17:25:00,73.0,43.0,29.76,SW,217,6.0,15.0,34,0.00,,,0.00,meteohub,2013-03-16 21:25:00,
2013-03-16 17:30:00,73.8,42.8,29.75,NW,314,5.0,15.0,33,0.00,,,0.00,meteohub,2013-03-16 21:30:00,
2013-03-16 17:36:00,73.6,43.5,29.76,West,259,2.0,15.0,34,0.00,,,0.00,meteohub,2013-03-16 21:36:00,
2013-03-16 17:41:00,73.0,43.0,29.75,WNW,289,7.0,15.0,34,0.00,,,0.00,meteohub,2013-03-16 21:41:00,
2013-03-16 17:46:00,72.3,43.2,29.76,West,280,5.0,15.0,35,0.00,,,0.00,meteohub,2013-03-16 21:46:00,
2013-03-16 17:51:00,72.0,42.8,29.76,WSW,249,4.0,12.0,35,0.00,,,0.00,meteohub,2013-03-16 21:51:00,
2013-03-16 17:56:00,72.0,43.5,29.76,West,270,7.0,12.0,36,0.00,,,0.00,meteohub,2013-03-16 21:56:00,
2013-03-16 18:01:00,71.6,43.2,29.76,West,273,4.0,18.0,36,0.00,,,0.00,meteohub,2013-03-16 22:01:00,
2013-03-16 18:06:00,71.8,43.3,29.76,West,266,6.0,18.0,36,0.00,,,0.00,meteohub,2013-03-16 22:06:00,
2013-03-16 18:11:00,71.4,43.2,29.76,West,281,3.0,18.0,36,0.00,,,0.00,meteohub,2013-03-16 22:11:00,
2013-03-16 18:16:00,71.4,43.2,29.76,WSW,254,4.0,15.0,36,0.00,,,0.00,meteohub,2013-03-16 22:16:00,
2013-03-16 18:21:00,71.4,43.2,29.77,WNW,291,1.0,15.0,36,0.00,,,0.00,meteohub,2013-03-16 22:21:00,
2013-03-16 18:26:00,71.4,43.7,29.77,North,356,6.0,15.0,37,0.00,,,0.00,meteohub,2013-03-16 22:26:00,
2013-03-16 18:31:00,70.9,43.3,29.77,WNW,287,3.0,13.0,37,0.00,,,0.00,meteohub,2013-03-16 22:31:00,
2013-03-16 18:36:00,70.9,44.1,29.77,WSW,252,2.0,13.0,38,0.00,,,0.00,meteohub,2013-03-16 22:36:00,
2013-03-16 18:41:00,70.5,43.7,29.77,North,354,2.0,13.0,38,0.00,,,0.00,meteohub,2013-03-16 22:41:00,
2013-03-16 18:46:00,70.2,44.1,29.77,West,266,6.0,12.0,39,0.00,,,0.00,meteohub,2013-03-16 22:46:00,
2013-03-16 18:52:00,69.6,43.5,29.78,West,264,6.0,12.0,39,0.00,,,0.00,meteohub,2013-03-16 22:52:00,
2013-03-16 18:57:00,69.4,44.1,29.78,WNW,295,9.0,10.0,40,0.00,,,0.00,meteohub,2013-03-16 22:57:00,
2013-03-16 19:02:00,69.1,43.7,29.78,SW,218,6.0,16.0,40,0.00,,,0.00,meteohub,2013-03-16 23:02:00,
2013-03-16 19:07:00,68.5,43.9,29.78,West,260,12.0,16.0,41,0.00,,,0.00,meteohub,2013-03-16 23:07:00,
2013-03-16 19:12:00,68.4,43.7,29.78,West,266,4.0,14.0,41,0.00,,,0.00,meteohub,2013-03-16 23:12:00,
2013-03-16 19:17:00,68.2,44.2,29.79,West,264,4.0,14.0,42,0.00,,,0.00,meteohub,2013-03-16 23:17:00,
2013-03-16 19:22:00,67.8,43.9,29.79,SSW,210,2.0,14.0,42,0.00,,,0.00,meteohub,2013-03-16 23:22:00,
2013-03-16 19:27:00,67.5,44.2,29.79,West,270,5.0,14.0,43,0.00,,,0.00,meteohub,2013-03-16 23:27:00,
2013-03-16 19:32:00,67.3,44.1,29.79,WSW,243,2.0,9.0,43,0.00,,,0.00,meteohub,2013-03-16 23:32:00,
2013-03-16 19:37:00,66.9,44.2,29.79,WNW,290,0.0,8.0,44,0.00,,,0.00,meteohub,2013-03-16 23:37:00,
2013-03-16 19:42:00,66.6,44.6,29.80,West,273,1.0,8.0,45,0.00,,,0.00,meteohub,2013-03-16 23:42:00,
2013-03-16 19:47:00,66.4,44.4,29.80,South,171,5.0,12.0,45,0.00,,,0.00,meteohub,2013-03-16 23:47:00,
2013-03-16 19:52:00,66.4,44.4,29.80,South,184,1.0,12.0,45,0.00,,,0.00,meteohub,2013-03-16 23:52:00,
2013-03-16 19:57:00,65.8,44.4,29.81,WSW,243,4.0,12.0,46,0.00,,,0.00,meteohub,2013-03-16 23:57:00,
2013-03-16 20:02:00,65.8,44.4,29.81,SW,229,2.0,11.0,46,0.00,,,0.00,meteohub,2013-03-17 00:02:00,
2013-03-16 20:07:00,65.7,45.0,29.81,WSW,246,1.0,9.0,47,0.00,,,0.00,meteohub,2013-03-17 00:07:00,
2013-03-16 20:12:00,65.3,44.6,29.81,WSW,252,6.0,9.0,47,0.00,,,0.00,meteohub,2013-03-17 00:12:00,
2013-03-16 20:17:00,65.1,44.4,29.81,WSW,253,1.0,9.0,47,0.00,,,0.00,meteohub,2013-03-17 00:17:00,
2013-03-16 20:22:00,64.9,44.8,29.82,NW,307,1.0,10.0,48,0.00,,,0.00,meteohub,2013-03-17 00:22:00,
2013-03-16 20:27:00,64.8,44.6,29.82,SW,226,2.0,10.0,48,0.00,,,0.00,meteohub,2013-03-17 00:27:00,
2013-03-16 20:32:00,64.6,44.4,29.82,NW,324,1.0,8.0,48,0.00,,,0.00,meteohub,2013-03-17 00:32:00,
2013-03-16 20:37:00,64.2,44.6,29.83,NW,307,2.0,8.0,49,0.00,,,0.00,meteohub,2013-03-17 00:37:00,
2013-03-16 20:42:00,64.0,44.4,29.83,WSW,251,4.0,8.0,49,0.00,,,0.00,meteohub,2013-03-17 00:42:00,
2013-03-16 20:47:00,63.9,44.2,29.83,West,267,1.0,10.0,49,0.00,,,0.00,meteohub,2013-03-17 00:47:00,
2013-03-16 20:52:00,63.7,44.2,29.83,SW,228,3.0,15.0,49,0.00,,,0.00,meteohub,2013-03-17 00:52:00,
2013-03-16 20:57:00,63.5,44.1,29.83,SSW,208,3.0,15.0,49,0.00,,,0.00,meteohub,2013-03-17 00:57:00,
2013-03-16 21:02:00,63.1,44.2,29.83,SW,221,1.0,15.0,50,0.00,,,0.00,meteohub,2013-03-17 01:02:00,
2013-03-16 21:07:00,62.8,43.9,29.84,SSW,210,2.0,10.0,50,0.00,,,0.00,meteohub,2013-03-17 01:07:00,
2013-03-16 21:12:00,62.8,43.9,29.84,WSW,240,2.0,8.0,50,0.00,,,0.00,meteohub,2013-03-17 01:12:00,
2013-03-16 21:18:00,62.4,43.5,29.84,SW,229,2.0,8.0,50,0.00,,,0.00,meteohub,2013-03-17 01:18:00,
2013-03-16 21:23:00,62.2,43.9,29.85,East,88,0.0,8.0,51,0.00,,,0.00,meteohub,2013-03-17 01:23:00,
2013-03-16 21:28:00,62.1,43.7,29.85,SW,224,2.0,7.0,51,0.00,,,0.00,meteohub,2013-03-17 01:28:00,
2013-03-16 21:33:00,62.2,43.9,29.85,West,276,0.0,6.0,51,0.00,,,0.00,meteohub,2013-03-17 01:33:00,
2013-03-16 21:38:00,62.1,43.7,29.85,WSW,257,1.0,6.0,51,0.00,,,0.00,meteohub,2013-03-17 01:38:00,
2013-03-16 21:43:00,61.9,43.5,29.85,WSW,257,0.0,6.0,51,0.00,,,0.00,meteohub,2013-03-17 01:43:00,
2013-03-16 21:48:00,61.5,43.2,29.86,WSW,249,0.0,5.0,51,0.00,,,0.00,meteohub,2013-03-17 01:48:00,
2013-03-16 21:53:00,61.5,43.2,29.86,ESE,119,0.0,3.0,51,0.00,,,0.00,meteohub,2013-03-17 01:53:00,
2013-03-16 21:58:00,61.2,43.3,29.86,SSW,203,0.0,4.0,52,0.00,,,0.00,meteohub,2013-03-17 01:58:00,
2013-03-16 22:03:00,61.0,43.2,29.86,SSW,200,0.0,4.0,52,0.00,,,0.00,meteohub,2013-03-17 02:03:00,
2013-03-16 22:10:00,61.0,43.2,29.86,NW,316,0.0,4.0,52,0.00,,,0.00,meteohub,2013-03-17 02:10:00,
2013-03-16 22:15:00,60.6,43.0,29.86,West,259,1.0,4.0,52,0.00,,,0.00,meteohub,2013-03-17 02:15:00,
2013-03-16 22:20:00,60.8,43.0,29.86,WSW,249,5.0,5.0,52,0.00,,,0.00,meteohub,2013-03-17 02:20:00,
2013-03-16 22:25:00,61.0,43.2,29.86,SE,138,0.0,6.0,52,0.00,,,0.00,meteohub,2013-03-17 02:25:00,
2013-03-16 22:30:00,60.6,43.0,29.86,SSW,203,0.0,6.0,52,0.00,,,0.00,meteohub,2013-03-17 02:30:00,
2013-03-16 22:35:00,60.6,43.0,29.87,WSW,257,1.0,5.0,52,0.00,,,0.00,meteohub,2013-03-17 02:35:00,
2013-03-16 22:40:00,60.6,43.0,29.87,SSE,150,0.0,7.0,52,0.00,,,0.00,meteohub,2013-03-17 02:40:00,
2013-03-16 22:45:00,60.4,42.8,29.87,South,184,1.0,7.0,52,0.00,,,0.00,meteohub,2013-03-17 02:45:00,
2013-03-16 22:50:00,60.3,43.0,29.87,SE,129,0.0,6.0,53,0.00,,,0.00,meteohub,2013-03-17 02:50:00,
2013-03-16 22:55:00,59.7,42.6,29.87,South,183,2.0,6.0,53,0.00,,,0.00,meteohub,2013-03-17 02:55:00,
2013-03-16 23:00:00,59.5,42.8,29.87,East,84,0.0,6.0,54,0.00,,,0.00,meteohub,2013-03-17 03:00:00,
2013-03-16 23:05:00,59.2,42.6,29.87,ESE,117,0.0,4.0,54,0.00,,,0.00,meteohub,2013-03-17 03:05:00,
2013-03-16 23:10:00,59.0,42.8,29.87,SE,138,1.0,4.0,55,0.00,,,0.00,meteohub,2013-03-17 03:10:00,
2013-03-16 23:15:00,58.6,42.4,29.87,ESE,107,0.0,2.0,55,0.00,,,0.00,meteohub,2013-03-17 03:15:00,
2013-03-16 23:20:00,58.5,42.8,29.88,SE,134,0.0,2.0,56,0.00,,,0.00,meteohub,2013-03-17 03:20:00,
2013-03-16 23:25:00,58.3,42.6,29.88,ESE,117,1.0,2.0,56,0.00,,,0.00,meteohub,2013-03-17 03:25:00,
2013-03-16 23:30:00,58.3,42.6,29.88,ESE,122,0.0,2.0,56,0.00,,,0.00,meteohub,2013-03-17 03:30:00,
2013-03-16 23:35:00,57.9,42.3,29.88,SE,124,0.0,2.0,56,0.00,,,0.00,meteohub,2013-03-17 03:35:00,
2013-03-16 23:40:00,57.7,42.6,29.88,SE,141,0.0,2.0,57,0.00,,,0.00,meteohub,2013-03-17 03:40:00,
2013-03-16 23:45:00,57.4,42.3,29.88,SE,127,0.0,1.0,57,0.00,,,0.00,meteohub,2013-03-17 03:45:00,
2013-03-16 23:51:00,57.4,42.8,29.88,SE,129,0.0,1.0,58,0.00,,,0.00,meteohub,2013-03-17 03:51:00,
2013-03-16 23:56:00,57.4,42.3,29.88,ESE,102,0.0,3.0,57,0.00,,,0.00,meteohub,2013-03-17 03:56:00,